Tracking 19279 objects as of 12-Nov-2018
HD Live streaming from Space Station
objects crossing your sky now

FLOCK 3P 4

Track FLOCK 3P 4 now!
10-day predictions
FLOCK 3P 4 is classified as:


NORAD ID: 41965
Int'l Code: 2017-008T
Perigee: 492.8 km
Apogee: 504.2 km
Inclination: 97.4 °
Period: 94.4 minutes
Semi major axis: 6869 km
RCS: Unknown
Launch date: February 15, 2017
Source: United States (US)
Launch site: SRIHARIKOTA (SRI)
aabbcc
Your satellite tracking list
Your tracking list is empty




NASA's NSSDC Master Catalog

Two Line Element Set (TLE):
1 41965U 17008T   18315.96032284  .00001328  00000-0  56428-4 0  9996
2 41965  97.4342  19.8348 0008320 180.8087 179.3138 15.24805697 96547
Source of the keplerian elements: AFSPC